TimeMST,TemperatureF,Dew PointF,Humidity,Sea Level PressureIn,VisibilityMPH,Wind Direction,Wind SpeedMPH,Gust SpeedMPH,PrecipitationIn,Events,Conditions,WindDirDegrees,DateUTC
12:15 AM,51.8,28.4,41,29.86,10.0,SE,5.8,-,N/A,,Mostly Cloudy,130,2013-03-08 07:15:00
12:35 AM,51.8,28.4,41,29.87,10.0,SSE,10.4,-,N/A,,Mostly Cloudy,160,2013-03-08 07:35:00
12:55 AM,51.8,28.4,41,29.88,10.0,SE,6.9,-,N/A,,Overcast,140,2013-03-08 07:55:00
1:15 AM,51.8,28.4,41,29.87,10.0,ESE,8.1,-,N/A,,Overcast,120,2013-03-08 08:15:00
1:35 AM,51.8,28.4,41,29.86,10.0,SE,10.4,-,N/A,,Overcast,130,2013-03-08 08:35:00
1:55 AM,51.8,28.4,41,29.86,10.0,SSE,12.7,-,N/A,,Scattered Clouds,150,2013-03-08 08:55:00
2:15 AM,53.6,30.2,41,29.85,10.0,SSE,18.4,-,N/A,,Mostly Cloudy,150,2013-03-08 09:15:00
2:35 AM,53.6,32.0,44,29.85,10.0,SE,15.0,-,N/A,,Overcast,140,2013-03-08 09:35:00
2:55 AM,53.6,32.0,44,29.84,10.0,SE,15.0,-,N/A,,Overcast,130,2013-03-08 09:55:00
3:15 AM,53.6,32.0,44,29.84,10.0,SE,13.8,-,N/A,,Mostly Cloudy,130,2013-03-08 10:15:00
3:35 AM,53.6,30.2,41,29.83,10.0,SE,12.7,-,N/A,,Clear,130,2013-03-08 10:35:00
3:55 AM,53.6,32.0,44,29.83,10.0,ESE,12.7,-,N/A,,Mostly Cloudy,110,2013-03-08 10:55:00
4:15 AM,51.8,32.0,47,29.82,10.0,ESE,12.7,-,N/A,,Mostly Cloudy,110,2013-03-08 11:15:00
4:35 AM,51.8,33.8,50,29.82,10.0,ESE,11.5,-,N/A,,Mostly Cloudy,120,2013-03-08 11:35:00
4:55 AM,51.8,33.8,50,29.82,10.0,SE,11.5,-,N/A,,Overcast,130,2013-03-08 11:55:00
5:15 AM,51.8,33.8,50,29.81,10.0,SSE,20.7,-,N/A,,Overcast,150,2013-03-08 12:15:00
5:35 AM,51.8,33.8,50,29.82,10.0,SSE,12.7,-,N/A,,Overcast,160,2013-03-08 12:35:00
6:15 AM,48.2,37.4,66,29.82,7.0,South,12.7,24.2,N/A,,Mostly Cloudy,180,2013-03-08 13:15:00
6:55 AM,46.4,39.2,76,29.82,10.0,SSE,4.6,-,N/A,,Overcast,150,2013-03-08 13:55:00
7:15 AM,46.4,39.2,76,29.81,10.0,East,3.5,-,N/A,,Overcast,80,2013-03-08 14:15:00
7:35 AM,46.4,41.0,81,29.81,10.0,NE,12.7,-,N/A,,Overcast,50,2013-03-08 14:35:00
7:55 AM,46.4,39.2,76,29.80,10.0,NE,11.5,-,N/A,,Mostly Cloudy,40,2013-03-08 14:55:00
8:15 AM,46.4,39.2,76,29.80,10.0,NE,16.1,20.7,N/A,,Mostly Cloudy,50,2013-03-08 15:15:00
8:35 AM,46.4,39.2,76,29.80,10.0,ENE,11.5,18.4,N/A,,Overcast,70,2013-03-08 15:35:00
8:55 AM,46.4,39.2,76,29.80,10.0,ENE,10.4,-,0.01,,Overcast,60,2013-03-08 15:55:00
9:15 AM,46.4,39.2,76,29.80,10.0,East,6.9,-,N/A,,Overcast,90,2013-03-08 16:15:00
9:35 AM,46.4,39.2,76,29.79,10.0,North,8.1,-,0.01,,Overcast,10,2013-03-08 16:35:00
9:55 AM,46.4,41.0,81,29.79,10.0,North,8.1,-,0.01,,Overcast,10,2013-03-08 16:55:00
10:15 AM,48.2,41.0,76,29.78,10.0,North,9.2,-,N/A,,Overcast,360,2013-03-08 17:15:00
10:35 AM,48.2,41.0,76,29.77,10.0,NW,6.9,-,N/A,,Overcast,310,2013-03-08 17:35:00
10:55 AM,48.2,41.0,76,29.77,10.0,WNW,5.8,-,N/A,,Mostly Cloudy,290,2013-03-08 17:55:00
11:15 AM,48.2,39.2,71,29.77,10.0,WSW,5.8,-,N/A,,Overcast,250,2013-03-08 18:15:00
11:35 AM,50.0,42.8,76,29.76,10.0,West,5.8,-,N/A,,Mostly Cloudy,270,2013-03-08 18:35:00
11:55 AM,51.8,41.0,67,29.75,10.0,SW,3.5,-,N/A,,Mostly Cloudy,230,2013-03-08 18:55:00
12:15 PM,51.8,41.0,67,29.74,10.0,Calm,Calm,-,N/A,,Mostly Cloudy,0,2013-03-08 19:15:00
12:35 PM,51.8,41.0,67,29.73,10.0,Calm,Calm,-,N/A,,Mostly Cloudy,0,2013-03-08 19:35:00
12:55 PM,51.8,41.0,67,29.74,10.0,WSW,17.3,25.3,N/A,,Overcast,240,2013-03-08 19:55:00
1:15 PM,46.4,37.4,71,29.74,10.0,West,20.7,-,N/A,,Overcast,260,2013-03-08 20:15:00
1:35 PM,48.2,39.2,71,29.72,10.0,West,19.6,-,N/A,,Mostly Cloudy,270,2013-03-08 20:35:00
1:55 PM,48.2,39.2,71,29.72,10.0,West,18.4,25.3,N/A,,Clear,260,2013-03-08 20:55:00
2:15 PM,48.2,37.4,66,29.72,10.0,West,18.4,26.5,N/A,,Mostly Cloudy,260,2013-03-08 21:15:00
2:35 PM,48.2,37.4,66,29.72,10.0,West,17.3,-,N/A,,Mostly Cloudy,260,2013-03-08 21:35:00
2:55 PM,48.2,39.2,71,29.72,10.0,WSW,15.0,-,N/A,,Mostly Cloudy,250,2013-03-08 21:55:00
3:15 PM,50.0,37.4,62,29.72,10.0,West,13.8,-,N/A,,Mostly Cloudy,280,2013-03-08 22:15:00
3:35 PM,50.0,37.4,62,29.71,10.0,West,12.7,-,N/A,,Scattered Clouds,270,2013-03-08 22:35:00
3:55 PM,50.0,37.4,62,29.71,10.0,West,8.1,-,N/A,,Mostly Cloudy,270,2013-03-08 22:55:00
4:15 PM,48.2,37.4,66,29.71,10.0,WSW,10.4,-,N/A,,Overcast,250,2013-03-08 23:15:00
4:35 PM,48.2,37.4,66,29.72,10.0,WSW,10.4,-,N/A,,Overcast,250,2013-03-08 23:35:00
4:55 PM,44.6,37.4,76,29.72,9.0,SSW,19.6,-,0.01,,Overcast,200,2013-03-08 23:55:00
5:15 PM,44.6,37.4,76,29.72,10.0,South,10.4,-,0.03,,Overcast,190,2013-03-09 00:15:00
5:35 PM,44.6,37.4,76,29.73,10.0,West,16.1,21.9,0.03,,Overcast,260,2013-03-09 00:35:00
5:55 PM,42.8,37.4,81,29.74,10.0,West,12.7,-,0.03,,Overcast,270,2013-03-09 00:55:00
6:15 PM,42.8,37.4,81,29.75,10.0,WSW,11.5,-,N/A,,Overcast,250,2013-03-09 01:15:00
6:35 PM,42.8,35.6,76,29.76,10.0,West,11.5,-,N/A,,Overcast,260,2013-03-09 01:35:00
6:55 PM,42.8,35.6,76,29.77,10.0,WSW,6.9,-,N/A,,Overcast,250,2013-03-09 01:55:00
7:15 PM,42.8,35.6,76,29.77,10.0,West,6.9,-,N/A,,Overcast,260,2013-03-09 02:15:00
7:35 PM,42.8,35.6,76,29.78,10.0,SSW,6.9,-,N/A,,Mostly Cloudy,210,2013-03-09 02:35:00
7:55 PM,42.8,35.6,76,29.79,10.0,South,8.1,-,0.01,,Scattered Clouds,180,2013-03-09 02:55:00
8:15 PM,42.8,35.6,76,29.80,10.0,ESE,4.6,-,0.01,,Mostly Cloudy,120,2013-03-09 03:15:00
8:35 PM,42.8,35.6,76,29.80,10.0,ESE,8.1,-,0.01,,Overcast,110,2013-03-09 03:35:00
8:55 PM,42.8,35.6,76,29.81,10.0,ESE,4.6,-,0.01,,Overcast,110,2013-03-09 03:55:00
9:15 PM,42.8,35.6,76,29.82,10.0,Calm,Calm,-,N/A,,Overcast,0,2013-03-09 04:15:00
9:35 PM,42.8,35.6,76,29.83,10.0,Calm,Calm,-,0.01,,Overcast,0,2013-03-09 04:35:00
9:55 PM,42.8,33.8,70,29.83,10.0,South,13.8,17.3,0.01,,Mostly Cloudy,190,2013-03-09 04:55:00
10:15 PM,42.8,32.0,66,29.84,10.0,SSW,13.8,-,N/A,,Mostly Cloudy,210,2013-03-09 05:15:00
10:35 PM,42.8,32.0,66,29.84,10.0,SW,12.7,-,N/A,,Mostly Cloudy,220,2013-03-09 05:35:00
10:55 PM,42.8,33.8,70,29.84,10.0,SW,6.9,-,N/A,,Overcast,220,2013-03-09 05:55:00
11:15 PM,42.8,33.8,70,29.85,10.0,SW,9.2,-,N/A,,Overcast,220,2013-03-09 06:15:00
11:35 PM,41.0,33.8,76,29.85,10.0,North,4.6,-,0.01,,Overcast,360,2013-03-09 06:35:00
11:55 PM,39.2,35.6,87,29.85,10.0,NNE,5.8,-,0.01,,Overcast,30,2013-03-09 06:55:00